Weather History for John Bell Williams, Raymond, MS

Change the Weather History Date:

Sunday, February 2, 2014

  Actual Average Record
Temperature  
Mean Temperature 52 °F -  
Max Temperature 68 °F - - ()
Min Temperature 35 °F - - ()
Degree Days  
Heating Degree Days 12    
Growing Degree Days 2 (Base 50)    
Moisture  
Dew Point 53 °F    
Average Humidity 99    
Maximum Humidity 100    
Minimum Humidity 88    
Precipitation  
Precipitation 1.65 in - - ()
Sea Level Pressure  
Sea Level Pressure 29.97 in    
Wind  
Wind Speed 8 mph (SSW)    
Max Wind Speed 14 mph    
Max Gust Speed 30 mph    
Visibility 7 miles    
Events Rain    
T = Trace of Precipitation, MM = Missing Value Source: NWS Daily Summary

Daily Weather History Graph

Daily Weather History Graph

Search for Another Location

Airport:

Trip Planner

Search our weather history database for the weather conditions in past years. The results will help you decide how hot, cold, wet, or windy it might be!

Date:

Astronomy

Feb. 02, 2014 Rise Set
Actual Time 6:55 AM CST 5:36 PM CST
Civil Twilight 6:29 AM CST 6:01 PM CST
Nautical Twilight 6:00 AM CST 6:31 PM CST
Astronomical Twilight 5:31 AM CST 6:59 PM CST
Moon 8:35 AM CST (2/2) 9:04 PM CST (2/2)
Length of Visible Light 11h 32m
Length of Day
10h 41m
Waxing Crescent, 11% of the Moon is Illuminated
Feb 2
Waxing Crescent
Feb 6
First Quarter
Feb 14
Full
Feb 22
Last Quarter
Mar 1
New

Hourly Weather History & Observations

Time (CST) Temp. Windchill Dew Point Humidity Pressure Visibility Wind Dir Wind Speed Gust Speed Precip Events Conditions
12:15 AM 62.6 °F - 60.8 °F 94% 30.00 in 10.0 mi SSE 9.2 mph - N/A   Overcast
12:35 AM 62.6 °F - 60.8 °F 94% 30.00 in 10.0 mi SSE 8.1 mph - N/A   Mostly Cloudy
12:55 AM 62.6 °F - 60.8 °F 94% 30.00 in 10.0 mi SSE 8.1 mph - N/A   Scattered Clouds
1:15 AM 62.6 °F - 60.8 °F 94% 30.00 in 10.0 mi SSE 10.4 mph - N/A   Mostly Cloudy
1:35 AM 62.6 °F - 60.8 °F 94% 30.00 in 10.0 mi SSE 10.4 mph 17.3 mph N/A   Overcast
1:55 AM 62.6 °F - 60.8 °F 94% 30.00 in 10.0 mi South 11.5 mph - N/A   Overcast
2:15 AM 62.6 °F - 59.0 °F 88% 30.00 in 10.0 mi South 5.8 mph - N/A   Overcast
2:35 AM 62.6 °F - 59.0 °F 88% 30.01 in 8.0 mi SSW 4.6 mph - N/A   Overcast
2:55 AM 62.6 °F - 60.8 °F 94% 30.01 in 1.2 mi SSE 8.1 mph - 0.04 in Rain Light Rain
3:15 AM 60.8 °F - 60.8 °F 100% 30.00 in 8.0 mi SSE 6.9 mph - N/A   Mostly Cloudy
3:35 AM 60.8 °F - 60.8 °F 100% 30.00 in 10.0 mi SSE 6.9 mph - N/A   Overcast
3:55 AM 60.8 °F - 60.8 °F 100% 30.00 in 10.0 mi SSE 8.1 mph - N/A   Mostly Cloudy
4:15 AM 60.8 °F - 60.8 °F 100% 30.00 in 10.0 mi SSE 5.8 mph - N/A   Mostly Cloudy
4:35 AM 60.8 °F - 60.8 °F 100% 30.00 in 10.0 mi SSE 5.8 mph - N/A   Mostly Cloudy
4:55 AM 60.8 °F - 60.8 °F 100% 29.99 in 10.0 mi SE 6.9 mph - N/A   Mostly Cloudy
5:15 AM 59.0 °F - 59.0 °F 100% 29.97 in 10.0 mi SSE 10.4 mph - N/A   Clear
5:35 AM 59.0 °F - 59.0 °F 100% 29.98 in 10.0 mi SSE 6.9 mph - N/A   Clear
5:55 AM 60.8 °F - 60.8 °F 100% 29.98 in 10.0 mi SSE 6.9 mph - N/A   Scattered Clouds
6:15 AM 60.8 °F - 60.8 °F 100% 29.98 in 10.0 mi SSE 9.2 mph - N/A   Mostly Cloudy
6:35 AM 62.6 °F - 62.6 °F 100% 29.98 in 10.0 mi South 6.9 mph - N/A   Mostly Cloudy
6:55 AM 62.6 °F - 62.6 °F 100% 29.98 in 10.0 mi SSE 11.5 mph - N/A   Mostly Cloudy
7:15 AM 62.6 °F - 62.6 °F 100% 29.98 in 10.0 mi SSE 11.5 mph - N/A   Overcast
7:35 AM 62.6 °F - 62.6 °F 100% 29.99 in 10.0 mi SSE 11.5 mph 17.3 mph N/A   Overcast
7:55 AM 62.6 °F - 62.6 °F 100% 29.99 in 10.0 mi SSE 9.2 mph - N/A   Overcast
8:15 AM 62.6 °F - 62.6 °F 100% 29.98 in 8.0 mi SSE 8.1 mph - N/A   Overcast
8:35 AM 64.4 °F - 64.4 °F 100% 29.99 in 7.0 mi SSE 9.2 mph - N/A   Overcast
8:55 AM 64.4 °F - 64.4 °F 100% 29.99 in 8.0 mi SSE 8.1 mph - N/A   Overcast
9:15 AM 64.4 °F - 64.4 °F 100% 29.99 in 9.0 mi SSE 8.1 mph - N/A   Overcast
9:35 AM 66.2 °F - 64.4 °F 94% 29.99 in 10.0 mi South 8.1 mph 18.4 mph N/A   Overcast
9:55 AM 66.2 °F - 66.2 °F 100% 29.99 in 7.0 mi South 9.2 mph 16.1 mph N/A   Overcast
10:35 AM 66.2 °F - 66.2 °F 100% 29.98 in 10.0 mi South 6.9 mph - N/A   Overcast
10:55 AM 68.0 °F - 66.2 °F 94% 29.97 in 10.0 mi South 10.4 mph 18.4 mph N/A   Overcast
11:15 AM 68.0 °F - 66.2 °F 94% 29.95 in 10.0 mi SSE 10.4 mph 16.1 mph N/A   Overcast
11:35 AM 68.0 °F - 66.2 °F 94% 29.94 in 10.0 mi South 13.8 mph 20.7 mph N/A   Overcast
11:55 AM 68.0 °F - 66.2 °F 94% 29.93 in 5.0 mi South 10.4 mph 17.3 mph N/A   Overcast
12:15 PM 68.0 °F - 66.2 °F 94% 29.92 in 5.0 mi SSE 9.2 mph - N/A   Mostly Cloudy
12:35 PM 66.2 °F - 66.2 °F 100% 29.90 in 1.5 mi SE 5.8 mph - N/A Rain Light Rain
12:55 PM 60.8 °F - 60.8 °F 100% 29.89 in 4.0 mi NNW 8.1 mph - N/A Rain Light Rain
1:15 PM 57.2 °F - 57.2 °F 100% 29.89 in 10.0 mi NNW 4.6 mph - N/A   Overcast
1:35 PM 55.4 °F - 55.4 °F 100% 29.88 in 10.0 mi NNW 6.9 mph - N/A   Overcast
1:55 PM 53.6 °F - 53.6 °F 100% 29.88 in 10.0 mi North 8.1 mph - N/A   Overcast
2:15 PM 50.0 °F - 50.0 °F 100% 29.88 in 1.5 mi NW 4.6 mph - 0.14 in Rain Heavy Rain
2:35 PM 50.0 °F - 50.0 °F 100% 29.88 in 2.5 mi NW 5.8 mph - 0.21 in Rain Rain
2:55 PM 50.0 °F - 50.0 °F 100% 29.89 in 2.0 mi NW 6.9 mph - 0.32 in Rain Rain
3:15 PM 48.2 °F - 48.2 °F 100% 29.89 in 1.2 mi NNW 3.5 mph - 0.11 in Rain Rain
3:35 PM 48.2 °F - 48.2 °F 100% 29.89 in 3.0 mi NNW 6.9 mph - 0.13 in Rain Light Rain
3:55 PM 48.2 °F - 48.2 °F 100% 29.89 in 9.0 mi NNW 9.2 mph - 0.13 in   Overcast
4:15 PM 46.4 °F 42.4 °F 46.4 °F 100% 29.89 in 2.0 mi NNW 8.1 mph - 0.05 in Rain Rain
4:35 PM 44.6 °F 39.2 °F 44.6 °F 100% 29.89 in 1.2 mi North 10.4 mph 18.4 mph 0.42 in Rain Heavy Rain
4:55 PM 42.8 °F 38.0 °F 42.8 °F 100% 29.92 in 3.0 mi NNW 8.1 mph 18.4 mph 0.51 in Rain Light Rain
5:15 PM 41.0 °F - 41.0 °F 100% 29.91 in 3.0 mi North - - 0.01 in Rain Light Rain
5:35 PM 41.0 °F 35.8 °F 41.0 °F 100% 29.91 in 4.0 mi North 8.1 mph - 0.02 in Rain Light Rain
5:55 PM 41.0 °F 36.4 °F 41.0 °F 100% 29.91 in 4.0 mi North 6.9 mph - 0.02 in Rain Light Rain
6:15 PM 39.2 °F 33.0 °F 39.2 °F 100% 29.93 in 9.0 mi NW 9.2 mph - N/A   Mostly Cloudy
6:35 PM 39.2 °F 31.6 °F 39.2 °F 100% 29.96 in 10.0 mi NNW 12.7 mph 29.9 mph N/A   Mostly Cloudy
6:55 PM 39.2 °F 32.0 °F 39.2 °F 100% 29.98 in 4.0 mi NW 11.5 mph 18.4 mph 0.02 in Rain Light Rain
7:15 PM 39.2 °F 33.0 °F 39.2 °F 100% 29.98 in 5.0 mi NNW 9.2 mph 18.4 mph N/A   Overcast
7:35 PM 37.4 °F 31.4 °F 37.4 °F 100% 30.00 in 4.0 mi NNW 8.1 mph - N/A Rain Light Rain
7:55 PM 37.4 °F 32.1 °F 37.4 °F 100% 30.00 in 3.0 mi NW 6.9 mph - N/A Rain Light Rain
8:15 PM 37.4 °F 30.8 °F 37.4 °F 100% 30.01 in 2.5 mi NW 9.2 mph - 0.02 in Rain Rain
8:35 PM 37.4 °F 32.8 °F 37.4 °F 100% 30.01 in 3.0 mi NNW 5.8 mph - 0.33 in Rain Light Rain
8:55 PM 37.4 °F 32.8 °F 37.4 °F 100% 30.02 in 2.0 mi NNW 5.8 mph - 0.37 in Rain Rain
9:15 PM 37.4 °F - 37.4 °F 100% 30.02 in 2.0 mi North - - 0.05 in Rain Rain
9:35 PM 37.4 °F 33.8 °F 37.4 °F 100% 30.03 in 3.0 mi NW 4.6 mph - 0.12 in Rain Light Rain
9:55 PM 37.4 °F 31.4 °F 37.4 °F 100% 30.03 in 3.0 mi NNW 8.1 mph - 0.15 in Rain Light Rain
10:15 PM 37.4 °F - 37.4 °F 100% 30.04 in 2.0 mi North - - 0.04 in Rain Light Rain
10:35 PM 37.4 °F 31.4 °F 37.4 °F 100% 30.03 in 3.0 mi NNW 8.1 mph - 0.05 in Rain Light Rain
10:55 PM 37.4 °F 32.1 °F 37.4 °F 100% 30.04 in 5.0 mi WNW 6.9 mph - 0.07 in Rain Light Rain
11:15 PM 37.4 °F 31.4 °F 37.4 °F 100% 30.04 in 7.0 mi North 8.1 mph - N/A   Mostly Cloudy
11:35 PM 37.4 °F 30.8 °F 37.4 °F 100% 30.07 in 5.0 mi NNW 9.2 mph - N/A   Mostly Cloudy
11:55 PM 35.6 °F 29.2 °F 35.6 °F 100% 30.07 in 4.0 mi NNW 8.1 mph - 0.02 in Rain Light Rain